Find Starlink 31305

NORAD ID: 59232 Int'l Des: 2024-049 Owner: SPXS Country: US Constellation: starlink operational
LEOCIRCULAR

Current View

Loading 3D Globe...

About Starlink 31305

Starlink 31305 (NORAD 59232) is a starlink constellation satellite (v2 mini) launched Mar 16, 2024 by SPXS of US. It operates in LEO, CIRCULAR orbit with a mass of 730.00 kg.

About Starlink 31305

Description loading...

Upcoming Passes

Passes for default location (London). Set your location on the main map for personalized predictions.

Altitude History

Loading altitude history...

Two-Line Element Set

1 59232U 24049B 26177.91909674 .00000423 00000-0 24893-4 0 9997
2 59232 43.0034 246.4488 0001954 274.1880 85.8748 15.27578744129093
Epoch: Jun 26, 2026 • Age: 6 hours

Current Status

Altitude 490.2 km
Velocity 7.62 km/s
Sub-Earth Point -30.44°S, 130.99°W
Launch Date Mar 16, 2024
Age 2.2 years
Type internet

Technical Details

Classification Payload
Mass 730.00 kg
Dry Mass 700.00 kg
Total Mass 730.00 kg
Length 0.30 m
Diameter 4.10 m
Span 29.00 m
Shape Box + pan
Manufacturer SPXS
Bus Type Starlink V2M
Phase Status In Orbit
Owner/State SPXS/US

Most Searched